Voltar ao catálogo

COSMOS 1053

AtivoNavegaçãoLEO
NORAD 11130·PAYLOAD·🇷🇺 Russia

Lançado Dec 5, 1978 de Plesetsk Cosmodrome

Loading…

Próximas Passagens (próximas 24 horas)

TLE

AtualizadoSource: Space-Track

Época: Sep 14, 2026, 15:53 UTC

1 11130U 78109C   26257.66183653  .00000010  00000-0  16754-3 0  9998
2 11130  74.0153 128.6173 0036725 127.4187 244.5584 12.51509605182691

Acompanhe COSMOS 1053 em tempo real com AllMySat

Download on the App Store